Year,Month,Day,Hour,Minute,Value (Times are PST for temperature in C)
2009,06,02,00,00,18.20
2009,06,02,00,01,18.10
2009,06,02,00,02,18.10
2009,06,02,00,03,18.10
2009,06,02,00,04,18.00
2009,06,02,00,05,17.90
2009,06,02,00,06,17.90
2009,06,02,00,07,17.90
2009,06,02,00,08,17.90
2009,06,02,00,09,17.90
2009,06,02,00,10,17.80
2009,06,02,00,11,17.80
2009,06,02,00,12,17.70
2009,06,02,00,13,17.70
2009,06,02,00,14,17.60
2009,06,02,00,15,17.60
2009,06,02,00,16,17.60
2009,06,02,00,17,17.50
2009,06,02,00,18,17.50
2009,06,02,00,19,17.50
2009,06,02,00,20,17.40
2009,06,02,00,21,17.40
2009,06,02,00,22,17.30
2009,06,02,00,23,17.30
2009,06,02,00,24,17.30
2009,06,02,00,25,17.30
2009,06,02,00,26,17.20
2009,06,02,00,27,17.20
2009,06,02,00,28,17.20
2009,06,02,00,29,17.10
2009,06,02,00,30,17.10
2009,06,02,00,31,17.10
2009,06,02,00,32,17.10
2009,06,02,00,33,17.00
2009,06,02,00,34,17.00
2009,06,02,00,35,17.00
2009,06,02,00,36,17.00
2009,06,02,00,37,16.90
2009,06,02,00,38,16.90
2009,06,02,00,39,16.80
2009,06,02,00,40,16.80
2009,06,02,00,41,16.70
2009,06,02,00,42,16.70
2009,06,02,00,43,16.70
2009,06,02,00,44,16.70
2009,06,02,00,45,16.60
2009,06,02,00,46,16.60
2009,06,02,00,47,16.50
2009,06,02,00,48,16.40
2009,06,02,00,49,16.40
2009,06,02,00,50,16.40
2009,06,02,00,51,16.40
2009,06,02,00,52,16.40
2009,06,02,00,53,16.40
2009,06,02,00,54,16.40
2009,06,02,00,55,16.40
2009,06,02,00,56,16.30
2009,06,02,00,57,16.30
2009,06,02,00,58,16.30
2009,06,02,00,59,16.30
2009,06,02,01,00,16.30
2009,06,02,01,01,16.20
2009,06,02,01,02,16.20
2009,06,02,01,03,16.20
2009,06,02,01,04,16.20
2009,06,02,01,05,16.20
2009,06,02,01,06,16.20
2009,06,02,01,07,16.10
2009,06,02,01,08,16.10
2009,06,02,01,09,16.10
2009,06,02,01,10,16.10
2009,06,02,01,11,16.10
2009,06,02,01,12,16.10
2009,06,02,01,13,16.10
2009,06,02,01,14,16.00
2009,06,02,01,15,15.90
2009,06,02,01,16,15.90
2009,06,02,01,17,15.90
2009,06,02,01,18,15.90
2009,06,02,01,19,15.80
2009,06,02,01,20,15.80
2009,06,02,01,21,15.80
2009,06,02,01,22,15.80
2009,06,02,01,23,15.80
2009,06,02,01,24,15.80
2009,06,02,01,25,15.80
2009,06,02,01,26,15.70
2009,06,02,01,27,15.70
2009,06,02,01,28,15.70
2009,06,02,01,29,15.70
2009,06,02,01,30,15.70
2009,06,02,01,31,15.60
2009,06,02,01,32,15.60
2009,06,02,01,33,15.60
2009,06,02,01,34,15.60
2009,06,02,01,35,15.60
2009,06,02,01,36,15.60
2009,06,02,01,37,15.60
2009,06,02,01,38,15.50
2009,06,02,01,39,15.50
2009,06,02,01,40,15.50
2009,06,02,01,41,15.50
2009,06,02,01,42,15.50
2009,06,02,01,43,15.50
2009,06,02,01,44,15.50
2009,06,02,01,45,15.40
2009,06,02,01,46,15.40
2009,06,02,01,47,15.40
2009,06,02,01,48,15.30
2009,06,02,01,49,15.30
2009,06,02,01,50,15.30
2009,06,02,01,51,15.30
2009,06,02,01,52,15.20
2009,06,02,01,53,15.20
2009,06,02,01,54,15.20
2009,06,02,01,55,15.10
2009,06,02,01,56,15.10
2009,06,02,01,57,15.00
2009,06,02,01,58,15.00
2009,06,02,01,59,15.00
2009,06,02,02,00,15.00
2009,06,02,02,01,15.00
2009,06,02,02,02,15.00
2009,06,02,02,03,15.00
2009,06,02,02,04,15.00
2009,06,02,02,05,14.90
2009,06,02,02,06,14.90
2009,06,02,02,07,14.90
2009,06,02,02,08,14.90
2009,06,02,02,09,14.90
2009,06,02,02,10,14.80
2009,06,02,02,11,14.80
2009,06,02,02,12,14.80
2009,06,02,02,13,14.80
2009,06,02,02,14,14.80
2009,06,02,02,15,14.80
2009,06,02,02,16,14.80
2009,06,02,02,17,14.80
2009,06,02,02,18,14.80
2009,06,02,02,19,14.80
2009,06,02,02,20,14.80
2009,06,02,02,21,14.80
2009,06,02,02,22,14.80
2009,06,02,02,23,14.80
2009,06,02,02,24,14.80
2009,06,02,02,25,14.80
2009,06,02,02,26,14.80
2009,06,02,02,27,14.80
2009,06,02,02,28,14.80
2009,06,02,02,29,14.80
2009,06,02,02,30,14.80
2009,06,02,02,31,14.80
2009,06,02,02,32,14.80
2009,06,02,02,33,14.80
2009,06,02,02,34,14.80
2009,06,02,02,35,14.90
2009,06,02,02,36,14.90
2009,06,02,02,37,15.00
2009,06,02,02,38,15.00
2009,06,02,02,39,15.00
2009,06,02,02,40,15.00
2009,06,02,02,41,15.00
2009,06,02,02,42,15.00
2009,06,02,02,43,15.10
2009,06,02,02,44,15.10
2009,06,02,02,45,15.10
2009,06,02,02,46,15.10
2009,06,02,02,47,15.10
2009,06,02,02,48,15.20
2009,06,02,02,49,15.20
2009,06,02,02,50,15.20
2009,06,02,02,51,15.20
2009,06,02,02,52,15.20
2009,06,02,02,53,15.20
2009,06,02,02,54,15.20
2009,06,02,02,55,15.20
2009,06,02,02,56,15.20
2009,06,02,02,57,15.20
2009,06,02,02,58,15.20
2009,06,02,02,59,15.20
2009,06,02,03,00,15.20
2009,06,02,03,01,15.20
2009,06,02,03,02,15.30
2009,06,02,03,03,15.30
2009,06,02,03,04,15.30
2009,06,02,03,05,15.30
2009,06,02,03,06,15.30
2009,06,02,03,07,15.30
2009,06,02,03,08,15.30
2009,06,02,03,09,15.30
2009,06,02,03,10,15.20
2009,06,02,03,11,15.20
2009,06,02,03,12,15.10
2009,06,02,03,13,15.10
2009,06,02,03,14,15.10
2009,06,02,03,15,15.00
2009,06,02,03,16,15.00
2009,06,02,03,17,15.00
2009,06,02,03,18,14.90
2009,06,02,03,19,14.90
2009,06,02,03,20,14.90
2009,06,02,03,21,14.80
2009,06,02,03,22,14.80
2009,06,02,03,23,14.80
2009,06,02,03,24,14.80
2009,06,02,03,25,14.80
2009,06,02,03,26,14.80
2009,06,02,03,27,14.80
2009,06,02,03,28,14.80
2009,06,02,03,29,14.80
2009,06,02,03,30,14.70
2009,06,02,03,31,14.70
2009,06,02,03,32,14.70
2009,06,02,03,33,14.70
2009,06,02,03,34,14.70
2009,06,02,03,35,14.70
2009,06,02,03,36,14.60
2009,06,02,03,37,14.60
2009,06,02,03,38,14.60
2009,06,02,03,39,14.60
2009,06,02,03,40,14.50
2009,06,02,03,41,14.50
2009,06,02,03,42,14.50
2009,06,02,03,43,14.40
2009,06,02,03,44,14.40
2009,06,02,03,45,14.30
2009,06,02,03,46,14.30
2009,06,02,03,47,14.30
2009,06,02,03,48,14.20
2009,06,02,03,49,14.20
2009,06,02,03,50,14.20
2009,06,02,03,51,14.30
2009,06,02,03,52,14.60
2009,06,02,03,53,14.80
2009,06,02,03,54,14.90
2009,06,02,03,55,15.00
2009,06,02,03,56,15.00
2009,06,02,03,57,15.00
2009,06,02,03,58,15.00
2009,06,02,03,59,14.90
2009,06,02,04,00,14.80
2009,06,02,04,01,14.70
2009,06,02,04,02,14.50
2009,06,02,04,03,14.40
2009,06,02,04,04,14.20
2009,06,02,04,05,14.20
2009,06,02,04,06,14.10
2009,06,02,04,07,14.10
2009,06,02,04,08,14.00
2009,06,02,04,09,14.00
2009,06,02,04,10,13.90
2009,06,02,04,11,13.90
2009,06,02,04,12,13.90
2009,06,02,04,13,13.80
2009,06,02,04,14,13.80
2009,06,02,04,15,13.70
2009,06,02,04,16,13.70
2009,06,02,04,17,13.70
2009,06,02,04,18,13.70
2009,06,02,04,19,13.70
2009,06,02,04,20,13.70
2009,06,02,04,21,13.70
2009,06,02,04,22,13.70
2009,06,02,04,23,13.60
2009,06,02,04,24,13.60
2009,06,02,04,25,13.60
2009,06,02,04,26,13.60
2009,06,02,04,27,13.60
2009,06,02,04,28,13.60
2009,06,02,04,29,13.60
2009,06,02,04,30,13.60
2009,06,02,04,31,13.60
2009,06,02,04,32,13.60
2009,06,02,04,33,13.50
2009,06,02,04,34,13.50
2009,06,02,04,35,13.50
2009,06,02,04,36,13.50
2009,06,02,04,37,13.50
2009,06,02,04,38,13.50
2009,06,02,04,39,13.50
2009,06,02,04,40,13.50
2009,06,02,04,41,13.50
2009,06,02,04,42,13.50
2009,06,02,04,43,13.60
2009,06,02,04,44,13.60
2009,06,02,04,45,13.60
2009,06,02,04,46,13.60
2009,06,02,04,47,13.50
2009,06,02,04,48,13.50
2009,06,02,04,49,13.50
2009,06,02,04,50,13.50
2009,06,02,04,51,13.50
2009,06,02,04,52,13.50
2009,06,02,04,53,13.50
2009,06,02,04,54,13.40
2009,06,02,04,55,13.40
2009,06,02,04,56,13.40
2009,06,02,04,57,13.40
2009,06,02,04,58,13.40
2009,06,02,04,59,13.40
2009,06,02,05,00,13.40
2009,06,02,05,01,13.40
2009,06,02,05,02,13.40
2009,06,02,05,03,13.50
2009,06,02,05,04,13.50
2009,06,02,05,05,13.50
2009,06,02,05,06,13.50
2009,06,02,05,07,13.50
2009,06,02,05,08,13.50
2009,06,02,05,09,13.50
2009,06,02,05,10,13.50
2009,06,02,05,11,13.50
2009,06,02,05,12,13.50
2009,06,02,05,13,13.50
2009,06,02,05,14,13.60
2009,06,02,05,15,13.60
2009,06,02,05,16,13.60
2009,06,02,05,17,13.50
2009,06,02,05,18,13.50
2009,06,02,05,19,13.50
2009,06,02,05,20,13.50
2009,06,02,05,21,13.50
2009,06,02,05,22,13.50
2009,06,02,05,23,13.50
2009,06,02,05,24,13.50
2009,06,02,05,25,13.50
2009,06,02,05,26,13.50
2009,06,02,05,27,13.60
2009,06,02,05,28,13.60
2009,06,02,05,29,13.60
2009,06,02,05,30,13.70
2009,06,02,05,31,13.70
2009,06,02,05,32,13.70
2009,06,02,05,33,13.70
2009,06,02,05,34,13.70
2009,06,02,05,35,13.70
2009,06,02,05,36,13.80
2009,06,02,05,37,13.80
2009,06,02,05,38,13.80
2009,06,02,05,39,13.80
2009,06,02,05,40,13.80
2009,06,02,05,41,13.80
2009,06,02,05,42,13.80
2009,06,02,05,43,13.80
2009,06,02,05,44,13.80
2009,06,02,05,45,13.80
2009,06,02,05,46,13.80
2009,06,02,05,47,13.80
2009,06,02,05,48,13.90
2009,06,02,05,49,13.90
2009,06,02,05,50,13.90
2009,06,02,05,51,14.00
2009,06,02,05,52,14.00
2009,06,02,05,53,14.00
2009,06,02,05,54,14.00
2009,06,02,05,55,14.10
2009,06,02,05,56,14.10
2009,06,02,05,57,14.10
2009,06,02,05,58,14.10
2009,06,02,05,59,14.10
2009,06,02,06,00,14.10
2009,06,02,06,01,14.10
2009,06,02,06,02,14.20
2009,06,02,06,03,14.20
2009,06,02,06,04,14.20
2009,06,02,06,05,14.20
2009,06,02,06,06,14.20
2009,06,02,06,07,14.20
2009,06,02,06,08,14.20
2009,06,02,06,09,14.20
2009,06,02,06,10,14.20
2009,06,02,06,11,14.20
2009,06,02,06,12,14.20
2009,06,02,06,13,14.20
2009,06,02,06,14,14.20
2009,06,02,06,15,14.20
2009,06,02,06,16,14.20
2009,06,02,06,17,14.20
2009,06,02,06,18,14.20
2009,06,02,06,19,14.30
2009,06,02,06,20,14.30
2009,06,02,06,21,14.30
2009,06,02,06,22,14.30
2009,06,02,06,23,14.30
2009,06,02,06,24,14.40
2009,06,02,06,25,14.40
2009,06,02,06,26,14.40
2009,06,02,06,27,14.50
2009,06,02,06,28,14.50
2009,06,02,06,29,14.50
2009,06,02,06,30,14.60
2009,06,02,06,31,14.60
2009,06,02,06,32,14.60
2009,06,02,06,33,14.70
2009,06,02,06,34,14.70
2009,06,02,06,35,14.70
2009,06,02,06,36,14.80
2009,06,02,06,37,14.80
2009,06,02,06,38,14.80
2009,06,02,06,39,14.80
2009,06,02,06,40,14.90
2009,06,02,06,41,15.00
2009,06,02,06,42,15.00
2009,06,02,06,43,15.10
2009,06,02,06,44,15.20
2009,06,02,06,45,15.20
2009,06,02,06,46,15.30
2009,06,02,06,47,15.30
2009,06,02,06,48,15.30
2009,06,02,06,49,15.30
2009,06,02,06,50,15.30
2009,06,02,06,51,15.30
2009,06,02,06,52,15.30
2009,06,02,06,53,15.30
2009,06,02,06,54,15.30
2009,06,02,06,55,15.30
2009,06,02,06,56,15.30
2009,06,02,06,57,15.30
2009,06,02,06,58,15.40
2009,06,02,06,59,15.40
2009,06,02,07,00,15.40
2009,06,02,07,01,15.40
2009,06,02,07,02,15.50
2009,06,02,07,03,15.50
2009,06,02,07,04,15.50
2009,06,02,07,05,15.60
2009,06,02,07,06,15.60
2009,06,02,07,07,15.70
2009,06,02,07,08,15.70
2009,06,02,07,09,15.80
2009,06,02,07,10,15.80
2009,06,02,07,11,15.80
2009,06,02,07,12,15.80
2009,06,02,07,13,15.80
2009,06,02,07,14,15.90
2009,06,02,07,15,15.90
2009,06,02,07,16,16.00
2009,06,02,07,17,16.10
2009,06,02,07,18,16.10
2009,06,02,07,19,16.20
2009,06,02,07,20,16.20
2009,06,02,07,21,16.30
2009,06,02,07,22,16.40
2009,06,02,07,23,16.50
2009,06,02,07,24,16.70
2009,06,02,07,25,16.80
2009,06,02,07,26,16.90
2009,06,02,07,27,16.90
2009,06,02,07,28,17.10
2009,06,02,07,29,17.30
2009,06,02,07,30,17.40
2009,06,02,07,31,17.50
2009,06,02,07,32,17.60
2009,06,02,07,33,17.70
2009,06,02,07,34,17.80
2009,06,02,07,35,17.90
2009,06,02,07,36,18.00
2009,06,02,07,37,18.10
2009,06,02,07,38,18.20
2009,06,02,07,39,18.20
2009,06,02,07,40,18.20
2009,06,02,07,41,18.20
2009,06,02,07,42,18.20
2009,06,02,07,43,18.20
2009,06,02,07,44,18.30
2009,06,02,07,45,18.30
2009,06,02,07,46,18.40
2009,06,02,07,47,18.40
2009,06,02,07,48,18.40
2009,06,02,07,49,18.40
2009,06,02,07,50,18.50
2009,06,02,07,51,18.50
2009,06,02,07,52,18.50
2009,06,02,07,53,18.50
2009,06,02,07,54,18.50
2009,06,02,07,55,18.60
2009,06,02,07,56,18.60
2009,06,02,07,57,18.60
2009,06,02,07,58,18.60
2009,06,02,07,59,18.60
2009,06,02,08,00,18.50
2009,06,02,08,01,18.50
2009,06,02,08,02,18.50
2009,06,02,08,03,18.50
2009,06,02,08,04,18.50
2009,06,02,08,05,18.50
2009,06,02,08,06,18.50
2009,06,02,08,07,18.40
2009,06,02,08,08,18.40
2009,06,02,08,09,18.30
2009,06,02,08,10,18.30
2009,06,02,08,11,18.20
2009,06,02,08,12,18.30
2009,06,02,08,13,18.30
2009,06,02,08,14,18.20
2009,06,02,08,15,18.20
2009,06,02,08,16,18.20
2009,06,02,08,17,18.20
2009,06,02,08,18,18.20
2009,06,02,08,19,18.10
2009,06,02,08,20,18.00
2009,06,02,08,21,17.90
2009,06,02,08,22,17.80
2009,06,02,08,23,17.80
2009,06,02,08,24,17.70
2009,06,02,08,25,17.70
2009,06,02,08,26,17.60
2009,06,02,08,27,17.60
2009,06,02,08,28,17.60
2009,06,02,08,29,17.50
2009,06,02,08,30,17.40
2009,06,02,08,31,17.40
2009,06,02,08,32,17.30
2009,06,02,08,33,17.30
2009,06,02,08,34,17.20
2009,06,02,08,35,17.10
2009,06,02,08,36,16.90
2009,06,02,08,37,16.80
2009,06,02,08,38,16.50
2009,06,02,08,39,16.30
2009,06,02,08,40,16.20
2009,06,02,08,41,16.20
2009,06,02,08,42,16.10
2009,06,02,08,43,16.10
2009,06,02,08,44,16.20
2009,06,02,08,45,16.20
2009,06,02,08,46,16.20
2009,06,02,08,47,16.20
2009,06,02,08,48,16.20
2009,06,02,08,49,16.20
2009,06,02,08,50,16.30
2009,06,02,08,51,16.40
2009,06,02,08,52,16.40
2009,06,02,08,53,16.40
2009,06,02,08,54,16.60
2009,06,02,08,55,16.60
2009,06,02,08,56,16.70
2009,06,02,08,57,16.80
2009,06,02,08,58,16.90
2009,06,02,08,59,17.10
2009,06,02,09,00,17.20
2009,06,02,09,01,17.30
2009,06,02,09,02,17.50
2009,06,02,09,03,17.60
2009,06,02,09,04,17.70
2009,06,02,09,05,17.90
2009,06,02,09,06,18.00
2009,06,02,09,07,18.10
2009,06,02,09,08,18.20
2009,06,02,09,09,18.30
2009,06,02,09,10,18.50
2009,06,02,09,11,18.60
2009,06,02,09,12,18.60
2009,06,02,09,13,18.80
2009,06,02,09,14,18.90
2009,06,02,09,15,19.10
2009,06,02,09,16,19.10
2009,06,02,09,17,19.20
2009,06,02,09,18,19.30
2009,06,02,09,19,19.40
2009,06,02,09,20,19.40
2009,06,02,09,21,19.60
2009,06,02,09,22,19.70
2009,06,02,09,23,19.80
2009,06,02,09,24,20.00
2009,06,02,09,25,20.20
2009,06,02,09,26,20.20
2009,06,02,09,27,20.30
2009,06,02,09,28,20.40
2009,06,02,09,29,20.50
2009,06,02,09,30,20.60
2009,06,02,09,31,20.70
2009,06,02,09,32,20.80
2009,06,02,09,33,20.90
2009,06,02,09,34,21.00
2009,06,02,09,35,21.10
2009,06,02,09,36,21.10
2009,06,02,09,37,21.30
2009,06,02,09,38,21.30
2009,06,02,09,39,21.50
2009,06,02,09,40,21.60
2009,06,02,09,41,21.70
2009,06,02,09,42,21.70
2009,06,02,09,43,21.90
2009,06,02,09,44,22.00
2009,06,02,09,45,22.10
2009,06,02,09,46,22.20
2009,06,02,09,47,22.30
2009,06,02,09,48,22.40
2009,06,02,09,49,22.50
2009,06,02,09,50,22.60
2009,06,02,09,51,22.60
2009,06,02,09,52,22.70
2009,06,02,09,53,22.70
2009,06,02,09,54,22.80
2009,06,02,09,55,22.90
2009,06,02,09,56,22.90
2009,06,02,09,57,23.00
2009,06,02,09,58,23.10
2009,06,02,09,59,23.30
2009,06,02,10,00,23.30
2009,06,02,10,01,23.30
2009,06,02,10,02,23.50
2009,06,02,10,03,23.60
2009,06,02,10,04,23.70
2009,06,02,10,05,23.70
2009,06,02,10,06,23.70
2009,06,02,10,07,23.80
2009,06,02,10,08,23.80
2009,06,02,10,09,23.90
2009,06,02,10,10,23.90
2009,06,02,10,11,24.10
2009,06,02,10,12,24.10
2009,06,02,10,13,24.10
2009,06,02,10,14,24.10
2009,06,02,10,15,24.10
2009,06,02,10,16,24.10
2009,06,02,10,17,24.10
2009,06,02,10,18,24.10
2009,06,02,10,19,24.10
2009,06,02,10,20,24.10
2009,06,02,10,21,23.90
2009,06,02,10,22,23.80
2009,06,02,10,23,23.70
2009,06,02,10,24,23.70
2009,06,02,10,25,23.70
2009,06,02,10,26,23.80
2009,06,02,10,27,23.90
2009,06,02,10,28,23.90
2009,06,02,10,29,24.10
2009,06,02,10,30,24.00
2009,06,02,10,31,23.90
2009,06,02,10,32,24.00
2009,06,02,10,33,24.10
2009,06,02,10,34,24.10
2009,06,02,10,35,24.10
2009,06,02,10,36,24.20
2009,06,02,10,37,24.30
2009,06,02,10,38,24.40
2009,06,02,10,39,24.50
2009,06,02,10,40,24.70
2009,06,02,10,41,24.80
2009,06,02,10,42,24.90
2009,06,02,10,43,25.00
2009,06,02,10,44,25.10
2009,06,02,10,45,25.20
2009,06,02,10,46,25.30
2009,06,02,10,47,25.40
2009,06,02,10,48,25.50
2009,06,02,10,49,25.50
2009,06,02,10,50,25.40
2009,06,02,10,51,25.30
2009,06,02,10,52,25.30
2009,06,02,10,53,25.40
2009,06,02,10,54,25.40
2009,06,02,10,55,25.40
2009,06,02,10,56,25.40
2009,06,02,10,57,25.50
2009,06,02,10,58,25.60
2009,06,02,10,59,25.60
2009,06,02,11,00,25.60
2009,06,02,11,01,25.50
2009,06,02,11,02,25.50
2009,06,02,11,03,25.50
2009,06,02,11,04,25.50
2009,06,02,11,05,25.50
2009,06,02,11,06,25.50
2009,06,02,11,07,25.60
2009,06,02,11,08,25.60
2009,06,02,11,09,25.60
2009,06,02,11,10,25.70
2009,06,02,11,11,25.80
2009,06,02,11,12,25.80
2009,06,02,11,13,25.80
2009,06,02,11,14,25.90
2009,06,02,11,15,25.90
2009,06,02,11,16,26.00
2009,06,02,11,17,26.00
2009,06,02,11,18,25.90
2009,06,02,11,19,25.90
2009,06,02,11,20,25.90
2009,06,02,11,21,25.80
2009,06,02,11,22,25.90
2009,06,02,11,23,25.90
2009,06,02,11,24,25.90
2009,06,02,11,25,25.90
2009,06,02,11,26,25.80
2009,06,02,11,27,25.80
2009,06,02,11,28,25.80
2009,06,02,11,29,25.70
2009,06,02,11,30,25.70
2009,06,02,11,31,25.70
2009,06,02,11,32,25.70
2009,06,02,11,33,25.70
2009,06,02,11,34,25.70
2009,06,02,11,35,25.70
2009,06,02,11,36,25.80
2009,06,02,11,37,25.80
2009,06,02,11,38,25.80
2009,06,02,11,39,25.90
2009,06,02,11,40,25.90
2009,06,02,11,41,25.90
2009,06,02,11,42,26.00
2009,06,02,11,43,26.00
2009,06,02,11,44,26.10
2009,06,02,11,45,26.10
2009,06,02,11,46,26.20
2009,06,02,11,47,26.30
2009,06,02,11,48,26.30
2009,06,02,11,49,26.30
2009,06,02,11,50,26.10
2009,06,02,11,51,26.10
2009,06,02,11,52,26.10
2009,06,02,11,53,26.00
2009,06,02,11,54,25.90
2009,06,02,11,55,25.90
2009,06,02,11,56,25.70
2009,06,02,11,57,25.60
2009,06,02,11,58,25.60
2009,06,02,11,59,25.70
2009,06,02,12,00,25.70
2009,06,02,12,01,25.80
2009,06,02,12,02,25.80
2009,06,02,12,03,25.90
2009,06,02,12,04,26.00
2009,06,02,12,05,26.20
2009,06,02,12,06,26.30
2009,06,02,12,07,26.50
2009,06,02,12,08,26.60
2009,06,02,12,09,26.70
2009,06,02,12,10,26.70
2009,06,02,12,11,26.70
2009,06,02,12,12,26.70
2009,06,02,12,13,26.70
2009,06,02,12,14,26.80
2009,06,02,12,15,26.90
2009,06,02,12,16,26.90
2009,06,02,12,17,26.90
2009,06,02,12,18,26.80
2009,06,02,12,19,26.80
2009,06,02,12,20,26.80
2009,06,02,12,21,26.90
2009,06,02,12,22,27.00
2009,06,02,12,23,27.10
2009,06,02,12,24,27.10
2009,06,02,12,25,27.10
2009,06,02,12,26,27.20
2009,06,02,12,27,27.30
2009,06,02,12,28,27.30
2009,06,02,12,29,27.40
2009,06,02,12,30,27.40
2009,06,02,12,31,27.40
2009,06,02,12,32,27.50
2009,06,02,12,33,27.60
2009,06,02,12,34,27.60
2009,06,02,12,35,27.60
2009,06,02,12,36,27.70
2009,06,02,12,37,27.70
2009,06,02,12,38,27.80
2009,06,02,12,39,27.80
2009,06,02,12,40,27.70
2009,06,02,12,41,27.60
2009,06,02,12,42,27.40
2009,06,02,12,43,27.20
2009,06,02,12,44,27.10
2009,06,02,12,45,27.10
2009,06,02,12,46,27.10
2009,06,02,12,47,27.20
2009,06,02,12,48,27.30
2009,06,02,12,49,27.30
2009,06,02,12,50,27.40
2009,06,02,12,51,27.60
2009,06,02,12,52,27.60
2009,06,02,12,53,27.60
2009,06,02,12,54,27.40
2009,06,02,12,55,27.40
2009,06,02,12,56,27.30
2009,06,02,12,57,27.30
2009,06,02,12,58,27.30
2009,06,02,12,59,27.40
2009,06,02,13,00,27.60
2009,06,02,13,01,27.40
2009,06,02,13,02,27.40
2009,06,02,13,03,27.40
2009,06,02,13,04,27.40
2009,06,02,13,05,27.50
2009,06,02,13,06,27.60
2009,06,02,13,07,27.70
2009,06,02,13,08,27.70
2009,06,02,13,09,27.60
2009,06,02,13,10,27.60
2009,06,02,13,11,27.60
2009,06,02,13,12,27.60
2009,06,02,13,13,27.60
2009,06,02,13,14,27.60
2009,06,02,13,15,27.60
2009,06,02,13,16,27.60
2009,06,02,13,17,27.60
2009,06,02,13,18,27.70
2009,06,02,13,19,27.80
2009,06,02,13,20,28.00
2009,06,02,13,21,28.20
2009,06,02,13,22,28.20
2009,06,02,13,23,28.10
2009,06,02,13,24,28.20
2009,06,02,13,25,28.30
2009,06,02,13,26,28.30
2009,06,02,13,27,28.40
2009,06,02,13,28,28.50
2009,06,02,13,29,28.60
2009,06,02,13,30,28.70
2009,06,02,13,31,28.80
2009,06,02,13,32,28.90
2009,06,02,13,33,28.90
2009,06,02,13,34,28.90
2009,06,02,13,35,28.90
2009,06,02,13,36,28.90
2009,06,02,13,37,28.90
2009,06,02,13,38,28.90
2009,06,02,13,39,28.90
2009,06,02,13,40,28.80
2009,06,02,13,41,28.80
2009,06,02,13,42,28.80
2009,06,02,13,43,28.70
2009,06,02,13,44,28.70
2009,06,02,13,45,28.70
2009,06,02,13,46,28.70
2009,06,02,13,47,28.80
2009,06,02,13,48,28.80
2009,06,02,13,49,28.90
2009,06,02,13,50,28.90
2009,06,02,13,51,28.90
2009,06,02,13,52,28.90
2009,06,02,13,53,28.90
2009,06,02,13,54,28.80
2009,06,02,13,55,28.70
2009,06,02,13,56,28.70
2009,06,02,13,57,28.70
2009,06,02,13,58,28.60
2009,06,02,13,59,28.60
2009,06,02,14,00,28.60
2009,06,02,14,01,28.40
2009,06,02,14,02,28.40
2009,06,02,14,03,28.40
2009,06,02,14,04,28.40
2009,06,02,14,05,28.50
2009,06,02,14,06,28.60
2009,06,02,14,07,28.40
2009,06,02,14,08,28.20
2009,06,02,14,09,28.00
2009,06,02,14,10,27.90
2009,06,02,14,11,27.50
2009,06,02,14,12,27.20
2009,06,02,14,13,26.70
2009,06,02,14,14,26.30
2009,06,02,14,15,25.90
2009,06,02,14,16,25.70
2009,06,02,14,17,25.50
2009,06,02,14,18,25.40
2009,06,02,14,19,25.40
2009,06,02,14,20,25.30
2009,06,02,14,21,25.10
2009,06,02,14,22,25.10
2009,06,02,14,23,25.20
2009,06,02,14,24,25.40
2009,06,02,14,25,25.50
2009,06,02,14,26,25.60
2009,06,02,14,27,25.80
2009,06,02,14,28,25.90
2009,06,02,14,29,26.00
2009,06,02,14,30,26.10
2009,06,02,14,31,26.10
2009,06,02,14,32,26.00
2009,06,02,14,33,26.00
2009,06,02,14,34,26.00
2009,06,02,14,35,25.90
2009,06,02,14,36,25.90
2009,06,02,14,37,26.00
2009,06,02,14,38,26.00
2009,06,02,14,39,26.00
2009,06,02,14,40,25.90
2009,06,02,14,41,25.90
2009,06,02,14,42,25.90
2009,06,02,14,43,26.00
2009,06,02,14,44,26.00
2009,06,02,14,45,26.00
2009,06,02,14,46,26.00
2009,06,02,14,47,26.00
2009,06,02,14,48,25.90
2009,06,02,14,49,25.90
2009,06,02,14,50,25.90
2009,06,02,14,51,26.00
2009,06,02,14,52,26.00
2009,06,02,14,53,26.00
2009,06,02,14,54,26.00
2009,06,02,14,55,25.90
2009,06,02,14,56,26.00
2009,06,02,14,57,26.00
2009,06,02,14,58,26.00
2009,06,02,14,59,26.00
2009,06,02,15,00,26.10
2009,06,02,15,01,26.20
2009,06,02,15,02,26.40
2009,06,02,15,03,26.40
2009,06,02,15,04,26.50
2009,06,02,15,05,26.60
2009,06,02,15,06,26.80
2009,06,02,15,07,26.80
2009,06,02,15,08,26.80
2009,06,02,15,09,26.80
2009,06,02,15,10,26.80
2009,06,02,15,11,26.90
2009,06,02,15,12,26.90
2009,06,02,15,13,27.00
2009,06,02,15,14,27.10
2009,06,02,15,15,27.10
2009,06,02,15,16,27.10
2009,06,02,15,17,27.20
2009,06,02,15,18,27.30
2009,06,02,15,19,27.30
2009,06,02,15,20,27.30
2009,06,02,15,21,27.20
2009,06,02,15,22,27.20
2009,06,02,15,23,27.20
2009,06,02,15,24,27.30
2009,06,02,15,25,27.30
2009,06,02,15,26,27.30
2009,06,02,15,27,27.30
2009,06,02,15,28,27.40
2009,06,02,15,29,27.40
2009,06,02,15,30,27.40
2009,06,02,15,31,27.40
2009,06,02,15,32,27.40
2009,06,02,15,33,27.60
2009,06,02,15,34,27.60
2009,06,02,15,35,27.60
2009,06,02,15,36,27.40
2009,06,02,15,37,27.30
2009,06,02,15,38,27.20
2009,06,02,15,39,27.10
2009,06,02,15,40,26.90
2009,06,02,15,41,27.00
2009,06,02,15,42,26.90
2009,06,02,15,43,26.80
2009,06,02,15,44,26.60
2009,06,02,15,45,26.50
2009,06,02,15,46,26.40
2009,06,02,15,47,26.30
2009,06,02,15,48,26.20
2009,06,02,15,49,26.20
2009,06,02,15,50,26.20
2009,06,02,15,51,26.30
2009,06,02,15,52,26.30
2009,06,02,15,53,26.40
2009,06,02,15,54,26.40
2009,06,02,15,55,26.40
2009,06,02,15,56,26.40
2009,06,02,15,57,26.40
2009,06,02,15,58,26.40
2009,06,02,15,59,26.60
2009,06,02,16,00,26.60
2009,06,02,16,01,26.60
2009,06,02,16,02,26.80
2009,06,02,16,03,26.80
2009,06,02,16,04,26.90
2009,06,02,16,05,26.90
2009,06,02,16,06,27.00
2009,06,02,16,07,27.10
2009,06,02,16,08,27.10
2009,06,02,16,09,27.10
2009,06,02,16,10,27.10
2009,06,02,16,11,26.90
2009,06,02,16,12,26.80
2009,06,02,16,13,26.70
2009,06,02,16,14,26.70
2009,06,02,16,15,26.70
2009,06,02,16,16,26.70
2009,06,02,16,17,26.80
2009,06,02,16,18,26.90
2009,06,02,16,19,27.00
2009,06,02,16,20,27.10
2009,06,02,16,21,27.20
2009,06,02,16,22,27.20
2009,06,02,16,23,27.30
2009,06,02,16,24,27.30
2009,06,02,16,25,27.30
2009,06,02,16,26,27.30
2009,06,02,16,27,27.30
2009,06,02,16,28,27.30
2009,06,02,16,29,27.30
2009,06,02,16,30,27.20
2009,06,02,16,31,27.20
2009,06,02,16,32,27.20
2009,06,02,16,33,27.10
2009,06,02,16,34,27.10
2009,06,02,16,35,27.10
2009,06,02,16,36,27.00
2009,06,02,16,37,26.90
2009,06,02,16,38,26.90
2009,06,02,16,39,26.90
2009,06,02,16,40,26.90
2009,06,02,16,41,26.80
2009,06,02,16,42,26.80
2009,06,02,16,43,26.80
2009,06,02,16,44,26.70
2009,06,02,16,45,26.80
2009,06,02,16,46,26.90
2009,06,02,16,47,27.00
2009,06,02,16,48,27.10
2009,06,02,16,49,27.10
2009,06,02,16,50,27.10
2009,06,02,16,51,27.00
2009,06,02,16,52,26.90
2009,06,02,16,53,27.00
2009,06,02,16,54,27.10
2009,06,02,16,55,27.10
2009,06,02,16,56,27.10
2009,06,02,16,57,27.10
2009,06,02,16,58,27.10
2009,06,02,16,59,27.10
2009,06,02,17,00,27.10
2009,06,02,17,01,27.10
2009,06,02,17,02,27.20
2009,06,02,17,03,27.20
2009,06,02,17,04,27.20
2009,06,02,17,05,27.30
2009,06,02,17,06,27.30
2009,06,02,17,07,27.30
2009,06,02,17,08,27.30
2009,06,02,17,09,27.30
2009,06,02,17,10,27.30
2009,06,02,17,11,27.20
2009,06,02,17,12,27.10
2009,06,02,17,13,27.10
2009,06,02,17,14,27.00
2009,06,02,17,15,26.80
2009,06,02,17,16,26.70
2009,06,02,17,17,26.60
2009,06,02,17,18,26.60
2009,06,02,17,19,26.60